Saranac Lake, NY
on Thursday, December 7, 2017

Thursday
       
Previous Day Next Day
Daily Summary
 ActualAverageRecord
Temperature
Mean Temperature °F °C 22°F -6°C  
Max Temperature 29°F -2°C 32°F 0°C 59°F 15°C (1998)
Min Temperature 24°F -4°C 13°F -11°C -17°F -27°C (2000)
Degree Days
Heating Degree Days 38 43  
Month to date heating degree days 229 289  
Since 1 July heating degree days 2286 2564  
Cooling Degree Days 0 0  
Month to date cooling degree days 0 0  
Year to date cooling degree days 69 114  
Moisture
Dew Point 24°F -4°C   
Average Humidity 87    
Maximum Humidity 92    
Minimum Humidity 81    
Precipitation
Precipitation 0.16 in / 4.06 cm 0.09 in / 2.29 cm 1.45 in / 3.68 cm (1976)
Month to date precipitation 0.59 0.64  
Year to date precipitation 42.32 35.87  
Wind
Wind Speed 9 mph / 14 km/h   
Max Wind Speed 18 mph / 29 km/h   
Max Gust Speed 25 mph / 40 km/h   
Visibility 4 miles / 6 kilometers   
Events Fog , Snow   

Key: T is trace of precipitation, MM is missing value
Source: NWS Daily Summary
Time(EST)TemperatureDew PointHumidity Pressure Visibility Wind DirectionWind SpeedGust SpeedPrecipitationEvents Conditions
12:03 AM 28.0°F -2.2°C 26.1°F -3.3°C 92% 29.73 in / 1006.7 hPa 6.0 miles / 9.7 kilometers SW 10.4 mph / 16.7 km/h - 0.00 in / 0.0 cm Snow Light Snow
12:42 AM 28.0°F -2.2°C 27.0°F -2.8°C 96% 29.72 in / 1006.3 hPa 2.0 miles / 3.2 kilometers SW 10.4 mph / 16.7 km/h - 0.00 in / 0.0 cm Snow Light Snow
12:51 AM 28.0°F -2.2°C 27.0°F -2.8°C 96% 29.78 in / 1008.3 hPa 2.5 miles / 4.0 kilometers SW 10.4 mph / 16.7 km/h - 0.00 in / 0.0 cm Snow Light Snow
1:04 AM 28.0°F -2.2°C 27.0°F -2.8°C 96% 29.72 in / 1006.3 hPa 3.0 miles / 4.8 kilometers WSW 8.1 mph / 13.0 km/h - 0.00 in / 0.0 cm Snow Light Snow
1:14 AM 28.9°F -1.7°C 27.0°F -2.8°C 92% 29.72 in / 1006.3 hPa 5.0 miles / 8.0 kilometers SW 8.1 mph / 13.0 km/h - 0.00 in / 0.0 cm Snow Light Snow
1:23 AM 28.9°F -1.7°C 27.0°F -2.8°C 92% 29.73 in / 1006.7 hPa 4.0 miles / 6.4 kilometers SW 10.4 mph / 16.7 km/h - 0.00 in / 0.0 cm Snow Light Snow
1:25 AM 28.9°F -1.7°C 27.0°F -2.8°C 92% 29.73 in / 1006.7 hPa 4.0 miles / 6.4 kilometers WSW 8.1 mph / 13.0 km/h - 0.00 in / 0.0 cm Snow Light Snow
1:51 AM 28.9°F -1.7°C 27.0°F -2.8°C 92% 29.79 in / 1008.6 hPa 6.0 miles / 9.7 kilometers SW 9.2 mph / 14.8 km/h - 0.00 in / 0.0 cm Snow Light Snow
1:58 AM 28.9°F -1.7°C 27.0°F -2.8°C 92% 29.73 in / 1006.7 hPa 4.0 miles / 6.4 kilometers SW 5.8 mph / 9.3 km/h - 0.00 in / 0.0 cm Snow Light Snow
2:26 AM 28.9°F -1.7°C 27.0°F -2.8°C 92% 29.74 in / 1007.0 hPa 5.0 miles / 8.0 kilometers WSW 10.4 mph / 16.7 km/h - 0.00 in / 0.0 cm Snow Light Snow
2:51 AM 28.9°F -1.7°C 26.1°F -3.3°C 89% 29.81 in / 1009.3 hPa 5.0 miles / 8.0 kilometers WSW 12.7 mph / 20.4 km/h 20.7 mph / 33.3 km/h 0.01 in / 0.3 cm Snow Light Snow
3:51 AM 27.0°F -2.8°C 24.1°F -4.4°C 89% 29.82 in / 1009.6 hPa 8.0 miles / 12.9 kilometers SW 8.1 mph / 13.0 km/h - 0.00 in / 0.0 cm Snow Light Snow
4:29 AM 27.0°F -2.8°C 21.9°F -5.6°C 81% 29.75 in / 1007.3 hPa 10.0 miles / 16.1 kilometers WSW 6.9 mph / 11.1 km/h 19.6 mph / 31.5 km/h 0.00 in / 0.0 cm   Overcast
4:38 AM 27.0°F -2.8°C 21.9°F -5.6°C 81% 29.75 in / 1007.3 hPa 10.0 miles / 16.1 kilometers WSW 8.1 mph / 13.0 km/h - 0.00 in / 0.0 cm   Overcast
4:51 AM 27.0°F -2.8°C 23.0°F -5.0°C 85% 29.82 in / 1009.6 hPa 10.0 miles / 16.1 kilometers WSW 11.5 mph / 18.5 km/h 20.7 mph / 33.3 km/h 0.00 in / 0.0 cm Snow Light Snow
5:29 AM 27.0°F -2.8°C 21.9°F -5.6°C 81% 29.76 in / 1007.7 hPa 9.0 miles / 14.5 kilometers WSW 12.7 mph / 20.4 km/h - 0.00 in / 0.0 cm Snow Light Snow
5:46 AM 26.6°F -3.0°C 21.2°F -6.0°C 80% 29.76 in / 1007.7 hPa 9.0 miles / 14.5 kilometers WSW 10.4 mph / 16.7 km/h - 0.00 in / 0.0 cm Snow Light Snow
5:51 AM 26.1°F -3.3°C 21.9°F -5.6°C 84% 29.82 in / 1009.8 hPa 7.0 miles / 11.3 kilometers WSW 8.1 mph / 13.0 km/h - 0.00 in / 0.0 cm Snow Light Snow
6:16 AM 26.1°F -3.3°C 21.9°F -5.6°C 84% 29.77 in / 1008.0 hPa 7.0 miles / 11.3 kilometers WSW 11.5 mph / 18.5 km/h 21.9 mph / 35.2 km/h 0.00 in / 0.0 cm Snow Light Snow
6:51 AM 25.0°F -3.9°C 21.9°F -5.6°C 88% 29.84 in / 1010.5 hPa 4.0 miles / 6.4 kilometers Variable 4.6 mph / 7.4 km/h - 0.00 in / 0.0 cm Snow Light Snow
7:51 AM 25.0°F -3.9°C 21.9°F -5.6°C 88% 29.85 in / 1010.8 hPa 2.5 miles / 4.0 kilometers Variable 4.6 mph / 7.4 km/h - 0.00 in / 0.0 cm Snow Light Snow
8:01 AM 25.0°F -3.9°C 21.9°F -5.6°C 88% 29.79 in / 1008.7 hPa 1.2 miles / 2.0 kilometers Variable 5.8 mph / 9.3 km/h - 0.00 in / 0.0 cm Snow Light Snow
8:19 AM 25.0°F -3.9°C 23.0°F -5.0°C 92% 29.80 in / 1009.0 hPa 2.0 miles / 3.2 kilometers Variable 5.8 mph / 9.3 km/h - 0.00 in / 0.0 cm Snow Light Snow
8:39 AM 25.0°F -3.9°C 21.9°F -5.6°C 88% 29.80 in / 1009.0 hPa 2.5 miles / 4.0 kilometers SW 9.2 mph / 14.8 km/h - 0.00 in / 0.0 cm Snow Light Snow
8:51 AM 25.0°F -3.9°C 21.9°F -5.6°C 88% 29.86 in / 1011.1 hPa 2.5 miles / 4.0 kilometers WSW 10.4 mph / 16.7 km/h 16.1 mph / 25.9 km/h 0.00 in / 0.0 cm Snow Light Snow
9:04 AM 25.0°F -3.9°C 21.9°F -5.6°C 88% 29.80 in / 1009.0 hPa 2.0 miles / 3.2 kilometers WSW 5.8 mph / 9.3 km/h - 0.00 in / 0.0 cm Snow Light Snow
9:19 AM 25.0°F -3.9°C 23.0°F -5.0°C 92% 29.80 in / 1009.0 hPa 3.0 miles / 4.8 kilometers WSW 6.9 mph / 11.1 km/h - 0.00 in / 0.0 cm Snow Light Snow
9:41 AM 26.1°F -3.3°C 21.9°F -5.6°C 84% 29.80 in / 1009.0 hPa 4.0 miles / 6.4 kilometers WSW 8.1 mph / 13.0 km/h - 0.00 in / 0.0 cm Snow Light Snow
9:51 AM 26.1°F -3.3°C 21.9°F -5.6°C 84% 29.86 in / 1011.1 hPa 6.0 miles / 9.7 kilometers WSW 10.4 mph / 16.7 km/h 18.4 mph / 29.6 km/h 0.00 in / 0.0 cm Snow Light Snow
10:05 AM 26.1°F -3.3°C 21.9°F -5.6°C 84% 29.80 in / 1009.0 hPa 10.0 miles / 16.1 kilometers SW 9.2 mph / 14.8 km/h - 0.00 in / 0.0 cm   Overcast
10:51 AM 27.0°F -2.8°C 19.0°F -7.2°C 72% 29.86 in / 1010.9 hPa 10.0 miles / 16.1 kilometers WSW 13.8 mph / 22.2 km/h 20.7 mph / 33.3 km/h 0.00 in / 0.0 cm   Overcast
11:51 AM 28.0°F -2.2°C 18.0°F -7.8°C 66% 29.84 in / 1010.3 hPa 10.0 miles / 16.1 kilometers WSW 9.2 mph / 14.8 km/h - N/A   Overcast
12:51 PM 28.0°F -2.2°C 18.0°F -7.8°C 66% 29.82 in / 1009.7 hPa 10.0 miles / 16.1 kilometers WSW 10.4 mph / 16.7 km/h 21.9 mph / 35.2 km/h N/A   Overcast
1:51 PM 28.0°F -2.2°C 19.0°F -7.2°C 69% 29.81 in / 1009.3 hPa 10.0 miles / 16.1 kilometers WSW 11.5 mph / 18.5 km/h 18.4 mph / 29.6 km/h 0.00 in / 0.0 cm Snow Light Snow
2:43 PM 27.0°F -2.8°C 21.9°F -5.6°C 81% 29.74 in / 1007.0 hPa 1.8 miles / 2.8 kilometers WSW 10.4 mph / 16.7 km/h - 0.00 in / 0.0 cm Snow Light Snow
2:51 PM 26.1°F -3.3°C 23.0°F -5.0°C 88% 29.81 in / 1009.2 hPa 0.8 miles / 1.2 kilometers SW 10.4 mph / 16.7 km/h - 0.00 in / 0.0 cm Snow Light Snow
3:16 PM 26.1°F -3.3°C 24.1°F -4.4°C 92% 29.74 in / 1007.0 hPa 1.5 miles / 2.4 kilometers WSW 4.6 mph / 7.4 km/h - 0.00 in / 0.0 cm Snow Light Snow
3:32 PM 26.1°F -3.3°C 25.0°F -3.9°C 96% 29.75 in / 1007.3 hPa 0.5 miles / 0.8 kilometers Variable 4.6 mph / 7.4 km/h - 0.00 in / 0.0 cm Fog , Snow Snow
3:44 PM 26.1°F -3.3°C 25.0°F -3.9°C 96% 29.75 in / 1007.3 hPa 0.5 miles / 0.8 kilometers Variable 3.5 mph / 5.6 km/h - 0.01 in / 0.3 cm Fog , Snow Snow
3:51 PM 26.1°F -3.3°C 25.0°F -3.9°C 96% 29.81 in / 1009.3 hPa 0.5 miles / 0.8 kilometers Variable 3.5 mph / 5.6 km/h - 0.01 in / 0.3 cm Fog , Snow Snow
4:10 PM 26.1°F -3.3°C 25.0°F -3.9°C 96% 29.74 in / 1007.0 hPa 1.0 miles / 1.6 kilometers West 4.6 mph / 7.4 km/h - 0.01 in / 0.3 cm Snow Light Snow
4:26 PM 26.1°F -3.3°C 24.1°F -4.4°C 92% 29.75 in / 1007.3 hPa 1.5 miles / 2.4 kilometers Variable 3.5 mph / 5.6 km/h - 0.02 in / 0.5 cm Snow Light Snow
4:35 PM 26.1°F -3.3°C 25.0°F -3.9°C 96% 29.75 in / 1007.3 hPa 0.8 miles / 1.2 kilometers WSW 3.5 mph / 5.6 km/h - 0.03 in / 0.8 cm Snow Light Snow
4:43 PM 26.1°F -3.3°C 25.0°F -3.9°C 96% 29.75 in / 1007.3 hPa 0.8 miles / 1.2 kilometers SW 3.5 mph / 5.6 km/h - 0.03 in / 0.8 cm Snow Light Snow
4:51 PM 26.1°F -3.3°C 25.0°F -3.9°C 96% 29.81 in / 1009.5 hPa 0.8 miles / 1.2 kilometers SW 4.6 mph / 7.4 km/h - 0.04 in / 1.0 cm Snow Light Snow
4:58 PM 26.1°F -3.3°C 25.0°F -3.9°C 96% 29.75 in / 1007.3 hPa 1.0 miles / 1.6 kilometers WSW 5.8 mph / 9.3 km/h - 0.00 in / 0.0 cm Snow Light Snow
5:11 PM 26.1°F -3.3°C 24.1°F -4.4°C 92% 29.75 in / 1007.3 hPa 0.5 miles / 0.8 kilometers WSW 10.4 mph / 16.7 km/h 19.6 mph / 31.5 km/h 0.01 in / 0.3 cm Fog , Snow Snow
5:20 PM 26.1°F -3.3°C 25.0°F -3.9°C 96% 29.75 in / 1007.3 hPa 0.5 miles / 0.8 kilometers WSW 5.8 mph / 9.3 km/h 19.6 mph / 31.5 km/h 0.02 in / 0.5 cm Fog , Snow Snow
5:40 PM 26.1°F -3.3°C 25.0°F -3.9°C 96% 29.76 in / 1007.7 hPa 1.2 miles / 2.0 kilometers WSW 4.6 mph / 7.4 km/h - 0.03 in / 0.8 cm Snow Light Snow
5:48 PM 26.6°F -3.0°C 24.8°F -4.0°C 93% 29.76 in / 1007.7 hPa 1.2 miles / 2.0 kilometers Variable 4.6 mph / 7.4 km/h - 0.03 in / 0.8 cm Snow Light Snow
5:51 PM 26.1°F -3.3°C 25.0°F -3.9°C 96% 29.83 in / 1009.9 hPa 1.0 miles / 1.6 kilometers West 3.5 mph / 5.6 km/h - 0.03 in / 0.8 cm Snow Light Snow
6:10 PM 26.1°F -3.3°C 24.1°F -4.4°C 92% 29.76 in / 1007.7 hPa 0.8 miles / 1.2 kilometers Calm Calm - 0.01 in / 0.3 cm Snow Light Snow
6:20 PM 26.1°F -3.3°C 25.0°F -3.9°C 96% 29.76 in / 1007.7 hPa 1.0 miles / 1.6 kilometers WSW 3.5 mph / 5.6 km/h - 0.01 in / 0.3 cm Snow Light Snow
6:40 PM 26.1°F -3.3°C 25.0°F -3.9°C 96% 29.77 in / 1008.0 hPa 0.5 miles / 0.8 kilometers SW 8.1 mph / 13.0 km/h - 0.03 in / 0.8 cm Fog , Snow Snow
6:51 PM 26.1°F -3.3°C 25.0°F -3.9°C 96% 29.83 in / 1010.1 hPa 1.0 miles / 1.6 kilometers WSW 8.1 mph / 13.0 km/h - 0.03 in / 0.8 cm Snow Light Snow
6:58 PM 26.1°F -3.3°C 25.0°F -3.9°C 96% 29.77 in / 1008.0 hPa 1.2 miles / 2.0 kilometers WSW 9.2 mph / 14.8 km/h - 0.00 in / 0.0 cm Snow Light Snow
7:12 PM 26.1°F -3.3°C 24.1°F -4.4°C 92% 29.77 in / 1008.0 hPa 2.5 miles / 4.0 kilometers WSW 8.1 mph / 13.0 km/h - 0.00 in / 0.0 cm Snow Light Snow
7:38 PM 26.1°F -3.3°C 24.1°F -4.4°C 92% 29.77 in / 1008.0 hPa 1.2 miles / 2.0 kilometers WSW 9.2 mph / 14.8 km/h 18.4 mph / 29.6 km/h 0.00 in / 0.0 cm Snow Light Snow
7:46 PM 26.6°F -3.0°C 24.8°F -4.0°C 93% 29.77 in / 1008.0 hPa 0.8 miles / 1.2 kilometers WSW 6.9 mph / 11.1 km/h - 0.00 in / 0.0 cm Snow Light Snow
7:51 PM 26.1°F -3.3°C 25.0°F -3.9°C 96% 29.83 in / 1010.2 hPa 0.5 miles / 0.8 kilometers WSW 6.9 mph / 11.1 km/h - 0.01 in / 0.3 cm Fog , Snow Snow
8:00 PM 26.1°F -3.3°C 25.0°F -3.9°C 96% 29.77 in / 1008.0 hPa 0.5 miles / 0.8 kilometers WSW 5.8 mph / 9.3 km/h - 0.01 in / 0.3 cm Fog , Snow Snow
8:39 PM 26.1°F -3.3°C 25.0°F -3.9°C 96% 29.77 in / 1008.0 hPa 1.5 miles / 2.4 kilometers SSW 10.4 mph / 16.7 km/h - 0.03 in / 0.8 cm Snow Light Snow
8:47 PM 26.6°F -3.0°C 24.8°F -4.0°C 93% 29.77 in / 1008.0 hPa 2.5 miles / 4.0 kilometers SW 10.4 mph / 16.7 km/h - 0.03 in / 0.8 cm Snow Light Snow
8:51 PM 26.1°F -3.3°C 24.1°F -4.4°C 92% 29.83 in / 1010.2 hPa 3.0 miles / 4.8 kilometers SW 12.7 mph / 20.4 km/h - 0.03 in / 0.8 cm Snow Light Snow
9:04 PM 26.1°F -3.3°C 24.1°F -4.4°C 92% 29.77 in / 1008.0 hPa 5.0 miles / 8.0 kilometers SW 12.7 mph / 20.4 km/h - 0.00 in / 0.0 cm Snow Light Snow
9:51 PM 26.1°F -3.3°C 23.0°F -5.0°C 88% 29.84 in / 1010.4 hPa 4.0 miles / 6.4 kilometers WSW 8.1 mph / 13.0 km/h - 0.00 in / 0.0 cm Snow Light Snow
10:29 PM 25.0°F -3.9°C 21.0°F -6.1°C 85% 29.78 in / 1008.4 hPa 10.0 miles / 16.1 kilometers WSW 9.2 mph / 14.8 km/h 17.3 mph / 27.8 km/h 0.00 in / 0.0 cm   Overcast
10:51 PM 24.1°F -4.4°C 21.0°F -6.1°C 88% 29.86 in / 1010.9 hPa 10.0 miles / 16.1 kilometers WSW 6.9 mph / 11.1 km/h - 0.00 in / 0.0 cm   Mostly Cloudy
11:51 PM 24.1°F -4.4°C 21.0°F -6.1°C 88% 29.86 in / 1011.0 hPa 10.0 miles / 16.1 kilometers WSW 9.2 mph / 14.8 km/h - N/A   Overcast